Вернуться в каталог

THORAD AGENA D DEB

АктивенPO
NORAD 4935·DEBRIS·🇺🇸 United States

Запущен Apr 8, 1970 с Vandenberg Space Force Base

Loading…

Ближайшие Пролёты

TLE

Source: Space-Track
1 04935U 70025GB  26228.62994880  .00000438  00000-0  40733-3 0  9996
2 04935  99.8622 359.8057 0063470 209.0454 163.7014 13.87371326825424

Отслеживайте THORAD AGENA D DEB в реальном времени с AllMySat

Download on the App Store